Location: Belfast
(54.5830°N, 5.9330°W)
Time: 01:49:44
(UTC+00:00)

ISS - Pass Details

Date: 28 January 2021
Orbit: 417 x 422 km, 51.6° (Epoch: 25 February)

Event Time Altitude Azimuth Distance (km) Brightness Sun altitude
Rises 19:18:47 0° 269° (W) 2,378 1.7 -20.6°
Reaches altitude 10° 19:20:55 10° 264° (W) 1,513 0.2 -20.9°
Enters shadow 19:24:03 47° 199° (SSW) 576 -3.0 -21.4°
